Weather in Novoalekseyevskiy

Russia / Republic of Adygea     44˚55′47″N   40˚22′01″E
temp.,
°C
wind,
m/s
gust,
m/s
humid.,
%
clouds,
%
prec.,
mm/h
press.,
hPa
HPBL,
m
17 january, sun
sun1700:00−1˚ene61077100 0.0 1014373
03:00−1˚ene71375100 0.0 1011564
06:00ene81491100 0.1 1007762
09:00+1˚e101680100 1.7 1004887
12:00+1˚e91585100 0.8 1002785
15:00+2˚e71381100 1.2 1001445
18:00+1˚e81388100 2.7 1001350
21:00+1˚e61195100 6.1 1002257
18 january, mon
mon1800:00+1˚ese4895100 0.9 1004327
03:00−2˚w5895100 1.3 1006376
06:00−4˚w81390100 0.1 1009617
09:00−4˚wnw61184100 0.1 1012680
12:00−3˚wnw578398 0.0 1014712
15:00−3˚wnw468499 0.1 1015730
18:00−3˚w3585100 0.0 1017627
21:00−3˚wsw2389100 0.0 1018198
19 january, tue
tue1900:00−3˚w3588100 0.0 1019502
03:00−3˚ssw129196 0.0 1019161
06:00−3˚ese248471 0.0 1019138
09:00−2˚ssw249373 1.4 1019322
12:00−2˚w467183 0.1 1019717
15:00−3˚wnw348890 0.4 1018468
18:00−4˚w3789100 0.6 1020706
21:00−6˚nnw249194 0.6 1022341
20 january, wed
wed2000:00−6˚w2387100 0.1 1023470
03:00−6˚wnw1288100 0.1 1024374
06:00−6˚nw1288100 0.1 1024330
09:00−6˚sw1286100 0.1 1026378
12:00−5˚w3377100 0.1 1026670
15:00−4˚wnw357798 0.1 1025750
18:00−6˚nw128957 0.0 102840
21:00−6˚ssw228939 0.0 102943
21 january, thu
thu2100:00−6˚ssw22890 0.0 103029
03:00−6˚ssw11880 0.0 103121
06:00−6˚ese228389 0.0 103149
09:00−5˚se357961 0.0 1032146
12:00se246654 0.0 1030241
15:00+1˚ese126774 0.0 1030151
18:00−1˚se237593 0.0 103123
21:00−1˚sse237763 0.0 103126